Regional Weather Roundup
Issued by NWS

Home | Current Version | Previous Version | Graphics & Text | Print | Product List | Glossary On
Versions: 1 2 3 4 5 6 7 8 9 10 11 12 13 14 15 16 17 18 19 20 21 22 23 24 25 26 27
000
ASUS45 KBOU 170907
RWRCO

WEATHER ROUNDUP FOR COLORADO
NATIONAL WEATHER SERVICE DENVER/BOULDER CO
300 AM MDT THU AUG 17 2017

NOTE: "FAIR" INDICATES FEW OR NO CLOUDS BELOW 12000 FEET WITH NO
SIGNIFICANT WEATHER AND/OR OBSTRUCTIONS TO VISIBILITY.

COZ001>005-013-030-031-171000-
...NORTHWEST COLORADO...

CITY           SKY/WX    TMP DP  RH WIND       PRES   REMARKS
CRAIG          MOCLDY    50  42  74 CALM      30.22S
HAYDEN         FAIR      51  40  65 E8        30.26R
MEEKER         FAIR      52  37  56 E7        30.24F
RABBIT EARS PA CLOUDY    46  32  57 SW7       30.48S
STEAMBOAT SPGS FAIR      44  39  81 CALM      30.27R
WALDEN         FAIR      37  34  87 SE3       30.36R
$$

COZ006>008-011-171000-
...WEST CENTRAL VALLEYS...

CITY           SKY/WX    TMP DP  RH WIND       PRES   REMARKS
GRAND JUNCTION FAIR      65  39  38 E10       30.11S
MONTROSE       FAIR      59  37  44 SE10      30.21R
EAGLE          FAIR      51  37  58 CALM      30.29R
RIFLE          FAIR      55  39  54 E3        30.19R
DELTA          FAIR      60  38  44 E3        30.17R
NUCLA          FAIR      55  32  41 E9        30.23S
$$

COZ017>023-064>068-171000-
...SOUTHWEST COLORADO...

CITY           SKY/WX    TMP DP  RH WIND       PRES   REMARKS
DURANGO        FAIR      49  31  49 CALM      30.24S
CORTEZ         FAIR      46  35  65 E3        30.20S
PAGOSA SPRINGS FAIR      46  29  50 CALM      30.32S
TELLURIDE      FAIR      49  31  48 SE5       30.43S
WOLF CREEK PAS FAIR      45  27  49 W3        30.63S
$$

COZ009-010-012-014-032>034-037-058>063-171000-
...CENTRAL COLORADO...

CITY           SKY/WX    TMP DP  RH WIND       PRES   REMARKS
ASPEN          FAIR      49  36  61 SW6       30.32S
BUENA VISTA    FAIR      46  37  69 W5        30.38R
COPPER MTN     FAIR      45  27  49 W9        30.58S
BERTHOUD PASS  FAIR      36  32  87 W21       30.59S
COTTONWOOD PAS FAIR      52  36  54 CALM      30.47S
GUNNISON       FAIR      43  36  76 NE5       30.36R
KREMMLING      FAIR      45  37  76 CALM      30.34S
LEADVILLE      FAIR      41  31  67 E3        30.46R
MONARCH PASS   FAIR      43  27  52 W10       30.69S
SALIDA         FAIR      53  46  79 W5        30.42R
SUNLIGHT       FAIR      46  28  49 NW6       30.53S
WILKERSON PASS FAIR      41  39  93 SW6       30.58R
$$

COZ069>075-171000-
...SAN LUIS VALLEY/SANGRE DE CRISTO MOUNTAINS...

CITY           SKY/WX    TMP DP  RH WIND       PRES   REMARKS
ALAMOSA        FAIR      46  43  89 SE5       30.29S
DEL NORTE      CLOUDY    54  34  47 W8        30.34R
LA VETA PASS   NOT AVBL
SAGUACHE       FAIR      52  34  50 NW5       30.33S
$$

COZ035-036-038>040-171000-
...NORTHERN COLORADO FRONT RANGE...

CITY           SKY/WX    TMP DP  RH WIND       PRES   REMARKS
DENVER INTL AP FAIR      57  49  74 S12       30.16F
DMNS CITY PARK   N/A     57  49  75 SW2G8     30.17S
AURORA         PTCLDY    58  48  71 S13       30.18F
FRONT RANGE AP FAIR      57  52  82 S10G16    30.18S
ERIE MUNI ARPT FAIR      53  50  90 CALM      30.20S
BOULDER MUN AP FAIR      55  50  82 W3        30.16S
CENTENNIAL     FAIR      60  47  61 S12       30.20S
BROOMFIELD     NOT AVBL
FORT COLLINS   FAIR      58  49  72 W6        30.14F
LONGMONT       FAIR      55  48  75 SW3       30.17S
$$

COZ041-046-047-076>085-087-088-171000-
...PIKES PEAK/PALMER DIVIDE AND SOUTHERN FOOTHILLS...

CITY           SKY/WX    TMP DP  RH WIND       PRES   REMARKS
COLO. SPRINGS  MOCLDY    61  50  67 SE5       30.26F
A. F. ACADEMY  CLOUDY    52  51  96 N5        30.26S
SCHRIEVER AFB  MOCLDY    58  49  72 SW10      30.26F
CHEYENNE MTN   MOCLDY    61  46  57 S13       30.24S
ELLICOTT       FAIR     N/A N/A N/A S6        30.25S
FALCON         FAIR      57  47  69 SW7       30.30S
FORT CARSON    CLOUDY    61  48  63 SW3       30.24S
LIMON          FAIR      49  48  97 N6        30.19F
MONUMENT HILL  FAIR      54  46  76 S7        30.29F
CANON CITY     CLEAR     63  55  77 CALM      30.22S
WALSENBURG     FAIR      54  48  82 W5        30.24F
TRINIDAD       FAIR      54  50  86 NW8       30.23F
$$

COZ042>045-048>051-090-091-171000-
...NORTHEAST COLORADO...

CITY           SKY/WX    TMP DP  RH WIND       PRES   REMARKS
GREELEY ARPT   FAIR      55  52  89 NE5       30.14S
AKRON          FAIR      57  51  80 S8        30.14S
BURLINGTON     FAIR      54  52  93 SW8       30.13S
WRAY           NOT AVBL
YUMA           FAIR      50  50 100 SW7       30.12S
STERLING       FAIR      52  50  93 CALM      30.10S
HOLYOKE        FAIR      54  50  87 SW3       30.09S
FORT MORGAN    FAIR      57  45  64 S5        30.13S
$$

COZ086-089-092>099-171000-
...SOUTHEAST COLORADO...

CITY           SKY/WX    TMP DP  RH WIND       PRES   REMARKS
PUEBLO         CLOUDY    66  56  70 CALM      30.18S
LA JUNTA       FAIR      63  54  72 W6        30.15F
LAMAR          FAIR      61  57  87 CALM      30.11R
SPRINGFIELD      N/A     57  54  89 SW6       30.17R
$$




USA.gov is the U.S. government's official web portal to all federal, state and local government web resources and services.